Weather History for Adrian, MI

Change the Weather History Date:

Wednesday, April 24, 2013

  Actual Average Record
Temperature  
Mean Temperature 45 °F -  
Max Temperature 55 °F 60 °F 85 °F (1960)
Min Temperature 35 °F 38 °F 28 °F (1999)
Degree Days  
Heating Degree Days 20    
Moisture  
Dew Point 39 °F    
Average Humidity 89    
Maximum Humidity 100    
Minimum Humidity 57    
Precipitation  
Precipitation 0.48 in - - ()
Sea Level Pressure  
Sea Level Pressure 29.88 in    
Wind  
Wind Speed 9 mph (NW)    
Max Wind Speed 16 mph    
Max Gust Speed 24 mph    
Visibility 7 miles    
Events Rain , Snow    
Averages and records for this station are not official NWS values.
T = Trace of Precipitation, MM = Missing Value Source: NWS Daily Summary

Daily Weather History Graph

Daily Weather History Graph

Search for Another Location

Airport:

Trip Planner

Search our weather history database for the weather conditions in past years. The results will help you decide how hot, cold, wet, or windy it might be!

Date:

Astronomy

Apr. 24, 2013 Rise Set
Actual Time 6:41 AM EDT 8:27 PM EDT
Civil Twilight 6:12 AM EDT 8:57 PM EDT
Nautical Twilight 5:36 AM EDT 9:33 PM EDT
Astronomical Twilight 4:57 AM EDT 10:12 PM EDT
Moon 7:29 PM EDT (4/24) 5:46 AM EDT (4/24)
Length of Visible Light 14h 44m
Length of Day
13h 45m
Waxing Gibbous, 98% of the Moon is Illuminated
Apr 24
Waxing Gibbous
Apr 25
Full
May 2
Last Quarter
May 9
New
May 18
First Quarter

Hourly Weather History & Observations

Time (EDT) Temp. Windchill Dew Point Humidity Pressure Visibility Wind Dir Wind Speed Gust Speed Precip Events Conditions
12:22 AM 55.4 °F - 53.6 °F 94% 29.81 in 2.5 mi SW 3.5 mph - 0.05 in Rain Rain
12:38 AM 55.4 °F - 53.6 °F 94% 29.81 in 2.0 mi WSW 5.8 mph - 0.12 in Rain Heavy Rain
12:51 AM 55.4 °F - 53.6 °F 94% 29.80 in 4.0 mi SSW 5.8 mph - 0.14 in Rain Light Rain
12:53 AM 55.0 °F - 54.0 °F 96% 29.80 in 4.0 mi SSW 5.8 mph - 0.15 in Rain Light Rain
1:03 AM 53.6 °F - 53.6 °F 100% 29.79 in 3.0 mi South 4.6 mph - 0.00 in Rain Light Rain
1:28 AM 55.4 °F - 53.6 °F 94% 29.78 in 4.0 mi SW 3.5 mph - 0.01 in Rain Light Rain
1:53 AM 55.0 °F - 54.0 °F 96% 29.77 in 4.0 mi SSW 6.9 mph - 0.02 in Rain Light Rain
2:09 AM 55.4 °F - 53.6 °F 94% 29.76 in 5.0 mi WSW 3.5 mph - 0.00 in Rain Light Rain
2:35 AM 53.6 °F - 51.8 °F 94% 29.76 in 5.0 mi NNW 10.4 mph - 0.00 in   Overcast
2:53 AM 48.9 °F - 46.9 °F 93% 29.76 in 8.0 mi North 11.5 mph - 0.02 in Rain Rain
3:03 AM 48.2 °F - 46.4 °F 93% 29.76 in 5.0 mi North 10.4 mph - 0.03 in Rain Rain
3:22 AM 46.4 °F 41.5 °F 44.6 °F 93% 29.76 in 7.0 mi North 10.4 mph - 0.07 in Rain Rain
3:44 AM 46.4 °F 40.4 °F 44.6 °F 93% 29.74 in 10.0 mi NNE 13.8 mph - 0.10 in Rain Light Rain
3:53 AM 46.9 °F - 45.0 °F 93% 29.77 in 10.0 mi North 12.7 mph - 0.10 in Rain Light Rain
4:02 AM 46.4 °F 40.7 °F 44.6 °F 93% 29.76 in 9.0 mi North 12.7 mph - 0.01 in Rain Light Rain
4:19 AM 46.4 °F 41.1 °F 44.6 °F 93% 29.77 in 8.0 mi North 11.5 mph 19.6 mph 0.03 in Rain Rain
4:53 AM 45.0 °F 38.5 °F 42.1 °F 90% 29.78 in 10.0 mi North 13.8 mph 24.2 mph 0.04 in Rain Light Rain
5:12 AM 44.6 °F 37.8 °F 42.8 °F 93% 29.79 in 10.0 mi North 15.0 mph - 0.00 in   Overcast
5:26 AM 44.6 °F 38.4 °F 42.8 °F 93% 29.79 in 10.0 mi North 12.7 mph - 0.00 in Rain Light Rain
5:36 AM 42.8 °F 35.8 °F 41.0 °F 93% 29.79 in 10.0 mi North 13.8 mph - 0.01 in Rain Light Rain
6:20 AM 39.2 °F 30.8 °F 37.4 °F 93% 29.80 in 6.0 mi North 15.0 mph - 0.00 in Rain Light Rain
6:40 AM 39.2 °F 32.0 °F 37.4 °F 93% 29.82 in 6.0 mi North 11.5 mph - 0.00 in Rain Light Rain
6:53 AM 39.0 °F 31.4 °F 37.0 °F 93% 29.83 in 8.0 mi North 12.7 mph - 0.00 in   Overcast
7:04 AM 39.2 °F 30.8 °F 35.6 °F 87% 29.82 in 10.0 mi North 15.0 mph - N/A   Overcast
7:53 AM 37.9 °F 30.5 °F 35.1 °F 89% 29.86 in 7.0 mi North 11.5 mph 19.6 mph 0.00 in Rain Light Rain
8:53 AM 37.0 °F 27.7 °F 35.1 °F 93% 29.86 in 8.0 mi North 16.1 mph 23.0 mph 0.00 in Rain Light Rain
9:53 AM 36.0 °F 28.0 °F 34.0 °F 93% 29.87 in 4.0 mi North 11.5 mph - 0.02 in Rain Light Rain
10:23 AM 35.6 °F 27.5 °F 33.8 °F 93% 29.84 in 7.0 mi North 11.5 mph - 0.02 in Rain Light Rain
10:53 AM 36.0 °F 27.5 °F 33.1 °F 89% 29.88 in 7.0 mi North 12.7 mph - 0.03 in Snow Light Snow
11:21 AM 35.6 °F 30.7 °F 33.8 °F 93% 29.88 in 4.0 mi NNW 5.8 mph - 0.02 in Snow Light Snow
11:33 AM 35.6 °F 29.2 °F 33.8 °F 93% 29.88 in 3.0 mi NNW 8.1 mph - 0.03 in Snow Light Snow
11:39 AM 35.6 °F 28.6 °F 33.8 °F 93% 29.89 in 2.5 mi NNW 9.2 mph - 0.03 in Snow Light Snow
11:53 AM 35.1 °F 27.9 °F 33.1 °F 92% 29.90 in 3.0 mi NNW 9.2 mph - 0.04 in Snow Light Snow
12:03 PM 35.6 °F 28.0 °F 33.8 °F 93% 29.87 in 4.0 mi North 10.4 mph - 0.01 in Snow Light Snow
12:53 PM 35.1 °F 27.4 °F 33.1 °F 92% 29.91 in 5.0 mi NNW 10.4 mph - 0.02 in Snow Light Snow
1:10 PM 35.6 °F 27.1 °F 33.8 °F 93% 29.90 in 7.0 mi NNW 12.7 mph - 0.01 in Snow Light Snow
1:17 PM 35.6 °F 25.9 °F 33.8 °F 93% 29.90 in 8.0 mi NW 16.1 mph 21.9 mph 0.01 in Snow Light Snow
1:29 PM 37.4 °F 28.9 °F 33.8 °F 87% 29.90 in 9.0 mi NNW 13.8 mph 20.7 mph 0.01 in   Overcast
1:53 PM 37.0 °F 28.1 °F 34.0 °F 89% 29.94 in 9.0 mi NW 15.0 mph 20.7 mph 0.02 in Rain Light Rain
2:26 PM 37.4 °F 30.8 °F 35.6 °F 93% 29.92 in 9.0 mi NNW 9.2 mph - 0.00 in Rain Light Rain
2:33 PM 35.6 °F 27.1 °F 35.6 °F 100% 29.92 in 10.0 mi NNW 12.7 mph 19.6 mph 0.01 in   Overcast
2:53 PM 36.0 °F 29.0 °F 35.1 °F 97% 29.95 in 10.0 mi NNW 9.2 mph - 0.01 in   Overcast
3:17 PM 37.4 °F 29.3 °F 35.6 °F 93% 29.95 in 10.0 mi NW 12.7 mph 21.9 mph 0.00 in Rain Light Rain
3:53 PM 37.9 °F 30.0 °F 37.0 °F 97% 29.99 in 10.0 mi NW 12.7 mph 19.6 mph 0.01 in Rain Light Rain
4:13 PM 39.2 °F 31.6 °F 37.4 °F 93% 29.97 in 10.0 mi NW 12.7 mph 18.4 mph 0.00 in Rain Light Rain
4:53 PM 39.9 °F 33.9 °F 37.0 °F 89% 30.01 in 10.0 mi NW 9.2 mph 18.4 mph 0.00 in   Overcast
5:04 PM 41.0 °F 35.2 °F 37.4 °F 87% 29.99 in 10.0 mi WNW 9.2 mph - N/A   Overcast
5:53 PM 42.1 °F 34.5 °F - N/A% 30.02 in 10.0 mi WNW 15.0 mph 20.7 mph N/A   Overcast
6:53 PM 42.1 °F 34.9 °F 28.9 °F 60% 30.06 in 10.0 mi WNW 13.8 mph 21.9 mph N/A   Overcast
7:53 PM 42.1 °F 36.1 °F 28.0 °F 58% 30.09 in 10.0 mi NW 10.4 mph - N/A   Mostly Cloudy
8:53 PM 39.0 °F 34.0 °F 25.0 °F 57% 30.12 in 10.0 mi West 6.9 mph - N/A   Clear
9:53 PM 36.0 °F 32.1 °F 25.0 °F 64% 30.16 in 10.0 mi WSW 4.6 mph - N/A   Clear
10:53 PM 36.0 °F 31.1 °F 26.1 °F 67% 30.18 in 10.0 mi WSW 5.8 mph - N/A   Clear
11:53 PM 35.1 °F 30.1 °F 26.1 °F 70% 30.19 in 10.0 mi West 5.8 mph - N/A   Clear